[[{"header":{"parameterUnit":"m.s-1","parameterCategory":1,"la1":30.2991,"la2":30.254,"lo1":-89.0895,"lo2":-89.0444,"dy":0.0017,"dx":0.0017,"nx":28,"ny":28,"refTime":"2023-07-26T03:00:00:Z","depth":0,"parameterNumber":2,"parameterNumberName":"U-component_of_WINDS"},"data":[0,0,0,0,0,0,0,0,0,0,0,0,0,0,0,0,0,0,0,0,0,0,0,0,0,0,0,0,0,0,0,0,0,0,0,0,0,0,0,0,0,0,0,0,0,0,0,0,0,0,0,0,0,0,0,0,0,0,0.7626,0.7626,0,0.7656,0.7656,0.7657,0.7669,0.7669,0.7669,0.7669,0.7697,0.7698,0.7698,0,0,0,0,0,0,0,0,0,0,0,0,0,0.7576,0.7576,0.7626,0.7626,0.7627,0.7656,0.7656,0.7657,0.767,0.7669,0.7669,0.7669,0.7697,0.7698,0.7698,0,0,0,0,0,0,0,0,0,0,0,0,0,0.7601,0.7577,0.7626,0.7637,0.7638,0.7656,0.7656,0.7657,0.767,0.7669,0.7669,0.7669,0.7696,0.7697,0.7699,0.7707,0,0,0.7702,0.7703,0,0,0,0,0,0,0,0,0.7599,0.7602,0.7635,0.7636,0.7637,0.7659,0.7649,0.7674,0.767,0.7657,0.7669,0.7669,0.7684,0.7686,0.7692,0.7708,0.7709,0.7702,0.7703,0.7703,0.7704,0,0,0,0,0,0,0,0.7597,0.7601,0.7638,0.7635,0.7637,0.7639,0.7642,0.7653,0.7671,0.7658,0.7659,0.7663,0.7685,0.7691,0.7693,0.771,0.7702,0.7703,0.7704,0.7704,0.7733,0.7733,0,0,0,0,0,0,0.7594,0.76,0.7637,0.7639,0.7618,0.764,0.7644,0.7652,0.7671,0.7673,0.7663,0.7664,0.7689,0.7691,0.7694,0.7704,0.7703,0.7705,0.7705,0.7733,0.7733,0.7733,0,0,0,0,0,0,0.7593,0.7598,0.7636,0.7619,0.7624,0.7641,0.765,0.7653,0.7659,0.7674,0.7677,0.7666,0.7689,0.7692,0.7704,0.7705,0.7705,0.7706,0.7733,0.7733,0.7733,0.7726,0,0,0,0,0,0,0.7592,0.7597,0.7602,0.7619,0.7625,0.7646,0.765,0.7653,0.7661,0.7662,0.7678,0.768,0.7689,0.7702,0.7705,0.7707,0.7707,0.7733,0.7733,0.7733,0.7726,0.7726,0.7725,0,0,0,0,0,0.759,0.7598,0.7602,0.7606,0.7631,0.7646,0.7649,0.766,0.7661,0.7665,0.7675,0.768,0.7705,0.7703,0.7706,0.7709,0.7733,0.7733,0.7733,0.7726,0.7726,0.7725,0,0,0,0,0,0,0.7579,0.76,0.7605,0.7619,0.7631,0.7648,0.7654,0.766,0.767,0.7671,0.7683,0.7686,0.7696,0.7704,0.7701,0.7717,0.7719,0.772,0.7712,0.7712,0.7712,0.771,0.7708,0,0,0,0,0,0.7578,0.759,0.7607,0.7618,0.7624,0.7637,0.7644,0.7652,0.7664,0.7669,0.7679,0.769,0.77,0.7706,0.7717,0.7727,0.773,0.773,0.773,0.773,0.773,0.7735,0.7735,0.7734,0.7734,0.7734,0,0,0.7576,0.759,0.7596,0.7616,0.7626,0.7636,0.7642,0.7653,0.766,0.767,0.7682,0.769,0.7702,0.7713,0.7718,0.7719,0.7731,0.773,0.7729,0.773,0.7735,0.7735,0.7736,0.7734,0.7734,0.7734,0,0,0.7579,0.759,0.76,0.761,0.7625,0.7634,0.7637,0.7653,0.7659,0.7671,0.7679,0.7687,0.7704,0.7713,0.7719,0.7724,0.7729,0.7727,0.7725,0.773,0.773,0.773,0.7731,0.7731,0.7727,0.7727,0.7727,0,0.7575,0.7592,0.7604,0.7615,0.7623,0.7633,0.7642,0.765,0.7668,0.7672,0.7674,0.7695,0.7705,0.7717,0.7718,0.7723,0.7725,0.7725,0.7729,0.7729,0.773,0.7731,0.7731,0.7727,0.7727,0.7727,0.7727,0,0.7585,0.7597,0.7603,0.762,0.7629,0.7639,0.7651,0.7658,0.7664,0.7672,0.7684,0.7695,0.7708,0.7711,0.7717,0.7724,0.7724,0.7727,0.7729,0.7729,0.773,0.7731,0.7726,0.7726,0.7726,0.7727,0,0,0.7582,0.7606,0.7608,0.7616,0.7633,0.7641,0.7651,0.7664,0.7669,0.768,0.7688,0.7702,0.7704,0.7712,0.7718,0.7723,0.7725,0.7725,0.7725,0.7724,0.7732,0.773,0.773,0.7728,0.7728,0.7728,0.7731,0,0.7587,0.7606,0.7617,0.763,0.7641,0.765,0.7658,0.7668,0.7676,0.7685,0.7693,0.7703,0.7706,0.771,0.7715,0.7724,0.7726,0.7723,0.7734,0.7734,0.7731,0.7731,0.7729,0.7731,0.7732,0.7732,0.7732,0,0.7595,0.7607,0.7622,0.7637,0.7642,0.7649,0.7661,0.767,0.7682,0.7687,0.7695,0.7701,0.771,0.7711,0.7723,0.7721,0.7726,0.773,0.7731,0.7732,0.7733,0.7732,0.7732,0.7733,0.7733,0.7733,0.7733,0,0.7591,0.761,0.7622,0.7628,0.7646,0.7651,0.7658,0.767,0.7677,0.7687,0.7691,0.7702,0.7708,0.7715,0.7724,0.7724,0.7735,0.7737,0.7738,0.7738,0.774,0.774,0.7741,0.7744,0.7744,0.7743,0.7743,0,0.7595,0.7604,0.762,0.7627,0.7637,0.7648,0.7657,0.7665,0.7675,0.7683,0.7691,0.7697,0.7709,0.7717,0.7723,0.7732,0.7734,0.7738,0.774,0.7737,0.7737,0.7741,0.7741,0.7744,0.7744,0.7744,0.7744,0,0.7592,0.7603,0.7616,0.7632,0.7637,0.7643,0.7656,0.7662,0.767,0.768,0.7683,0.7695,0.7705,0.7714,0.7727,0.7731,0.7739,0.7742,0.7736,0.7737,0.7738,0.7738,0.7741,0.7742,0.7744,0.7744,0.7744,0,0.7594,0.7601,0.7618,0.7624,0.7631,0.7641,0.7648,0.7659,0.7666,0.7679,0.7684,0.7694,0.7703,0.7717,0.7727,0.7736,0.7739,0.7739,0.774,0.7737,0.7738,0.7738,0.7738,0.7739,0.7739,0.7739,0.7739,0,0.7596,0.7601,0.7611,0.7623,0.7632,0.7642,0.7652,0.7656,0.7668,0.7675,0.7686,0.7693,0.7706,0.7715,0.7726,0.7732,0.7737,0.7738,0.7739,0.7737,0.7733,0.7735,0.7735,0.7738,0.7738,0.7738,0.7738,0.7738,0.7595,0.7601,0.7614,0.7625,0.7634,0.7643,0.765,0.7659,0.7668,0.768,0.7685,0.7695,0.7705,0.772,0.7726,0.7734,0.7735,0.7736,0.7737,0.7737,0.7736,0.7732,0.7735,0.7735,0.7735,0.7736,0.7736,0,0.7597,0.7605,0.7616,0.763,0.7638,0.7643,0.7654,0.766,0.7669,0.7679,0.7687,0.7699,0.7708,0.7718,0.7727,0.7731,0.7734,0.7733,0.7733,0.7734,0.7734,0.7733,0.7731,0.7731,0.7731,0.7731,0.7731,0.7731,0.7599,0.761,0.7616,0.7631,0.7639,0.765,0.7656,0.7664,0.7671,0.7684,0.7692,0.7699,0.7708,0.7718,0.7727,0.7729,0.7732,0.7731,0.7734,0.7734,0.7734,0.7735,0.7733,0.7732,0.7732,0.7733,0.7733,0.7733]},{"header":{"parameterUnit":"m.s-1","parameterCategory":1,"la1":30.2991,"la2":30.254,"lo1":-89.0895,"lo2":-89.0444,"dy":0.0017,"dx":0.0017,"nx":28,"ny":28,"refTime":"2023-07-26T03:00:00:Z","depth":0,"parameterNumber":3,"parameterNumberName":"V-component_of_WINDS"},"data":[0,0,0,0,0,0,0,0,0,0,0,0,0,0,0,0,0,0,0,0,0,0,0,0,0,0,0,0,0,0,0,0,0,0,0,0,0,0,0,0,0,0,0,0,0,0,0,0,0,0,0,0,0,0,0,0,0,0,2.0721,2.072,0,2.0667,2.0666,2.0666,2.061,2.0609,2.0608,2.0607,2.0551,2.055,2.0549,0,0,0,0,0,0,0,0,0,0,0,0,0,2.0774,2.0773,2.0721,2.072,2.072,2.0667,2.0666,2.0666,2.061,2.0609,2.0608,2.0607,2.0551,2.055,2.0549,0,0,0,0,0,0,0,0,0,0,0,0,0,2.0739,2.0773,2.0721,2.0686,2.0682,2.0667,2.0666,2.0665,2.061,2.0609,2.0608,2.0607,2.0551,2.055,2.0549,2.0565,0,0,2.0546,2.0545,0,0,0,0,0,0,0,0,2.0741,2.0737,2.0691,2.0688,2.0684,2.0644,2.0664,2.0632,2.061,2.0637,2.0607,2.0606,2.0583,2.0579,2.0571,2.0562,2.056,2.0545,2.0545,2.0544,2.0544,0,0,0,0,0,0,0,2.0743,2.0739,2.07,2.0691,2.0686,2.0672,2.0665,2.0658,2.0617,2.0635,2.0631,2.0625,2.058,2.0573,2.0569,2.0559,2.0545,2.0544,2.0544,2.0543,2.0559,2.056,0,0,0,0,0,0,2.0751,2.0741,2.0701,2.0698,2.071,2.0672,2.0665,2.0658,2.0617,2.061,2.0626,2.0623,2.0575,2.0571,2.0567,2.0582,2.0544,2.0543,2.0542,2.0558,2.0559,2.0561,0,0,0,0,0,0,2.0753,2.0748,2.0704,2.0718,2.0712,2.0672,2.0665,2.0657,2.0649,2.061,2.0603,2.0626,2.0574,2.0569,2.0566,2.0579,2.0543,2.0541,2.0557,2.0558,2.056,2.0613,0,0,0,0,0,0,2.0754,2.0749,2.0755,2.0719,2.0711,2.0704,2.0666,2.0657,2.0648,2.0643,2.0608,2.0601,2.0573,2.0568,2.0565,2.0577,2.0541,2.0555,2.0557,2.0559,2.061,2.0616,2.0622,0,0,0,0,0,2.0756,2.0772,2.0756,2.0751,2.0718,2.0705,2.07,2.0667,2.0649,2.0655,2.0629,2.0602,2.0579,2.0568,2.0564,2.0576,2.0554,2.0557,2.0559,2.0607,2.0615,2.0621,0,0,0,0,0,0,2.0811,2.0767,2.0748,2.0753,2.0733,2.0695,2.0701,2.0677,2.0661,2.0657,2.0617,2.061,2.0611,2.0593,2.0582,2.0589,2.0562,2.0564,2.06,2.0607,2.0613,2.0617,2.054,0,0,0,0,0,2.0824,2.0817,2.0779,2.0786,2.0777,2.0741,2.0734,2.0711,2.0688,2.0679,2.0654,2.0633,2.062,2.0613,2.0599,2.0607,2.0598,2.0613,2.0619,2.0624,2.0626,2.0627,2.0634,2.0569,2.0569,2.0569,0,0,2.085,2.0825,2.0823,2.0797,2.0779,2.0772,2.0734,2.0729,2.0723,2.0678,2.0674,2.0654,2.0628,2.063,2.0629,2.0615,2.0642,2.0628,2.0632,2.0631,2.0631,2.0637,2.0642,2.0571,2.057,2.057,0,0,2.0893,2.0874,2.0878,2.086,2.0833,2.0809,2.081,2.0776,2.0761,2.0756,2.0721,2.0714,2.0694,2.0676,2.0664,2.07,2.0674,2.0697,2.0728,2.073,2.0735,2.0739,2.0751,2.0756,2.0699,2.0699,2.0699,0,2.0929,2.0918,2.0883,2.0879,2.0868,2.0828,2.0831,2.0815,2.0785,2.0778,2.0763,2.0736,2.0715,2.0712,2.0721,2.0713,2.0712,2.0701,2.0737,2.0741,2.0744,2.0755,2.076,2.0702,2.0702,2.0702,2.0701,0,2.0962,2.0955,2.0961,2.0933,2.0923,2.0923,2.0887,2.0881,2.0858,2.0835,2.083,2.0804,2.0784,2.0781,2.0759,2.0774,2.0766,2.0745,2.0717,2.0754,2.0763,2.0767,2.0706,2.0705,2.0704,2.0704,0,0,2.1038,2.0991,2.0993,2.098,2.0947,2.094,2.0938,2.0918,2.0913,2.0894,2.089,2.0873,2.0853,2.084,2.0815,2.0817,2.0845,2.0795,2.0793,2.0804,2.0859,2.0875,2.088,2.0828,2.0829,2.083,2.0861,0,2.1075,2.1069,2.1037,2.104,2.1032,2.0993,2.099,2.0969,2.0948,2.0937,2.0913,2.0902,2.0876,2.0868,2.0868,2.0842,2.0856,2.0839,2.0823,2.0823,2.083,2.0885,2.0902,2.0933,2.0864,2.0865,2.0865,0,2.1117,2.11,2.1102,2.1068,2.1064,2.1062,2.1041,2.1033,2.1008,2.0991,2.0977,2.0949,2.0943,2.0918,2.0909,2.0899,2.089,2.0876,2.0877,2.0873,2.0846,2.0882,2.0942,2.0946,2.0871,2.0871,2.087,0,2.1171,2.1149,2.1147,2.1136,2.1097,2.1097,2.108,2.1054,2.1044,2.1026,2.1019,2.1,2.099,2.0975,2.0943,2.0928,2.0937,2.0909,2.0922,2.0923,2.0925,2.0925,2.0984,2.0922,2.0922,2.0922,2.0922,0,2.1215,2.1218,2.117,2.1169,2.117,2.1134,2.1136,2.1115,2.1092,2.1086,2.1051,2.1045,2.1003,2.0992,2.0967,2.0962,2.0958,2.0944,2.0937,2.0947,2.0948,2.094,2.0937,2.0923,2.0923,2.0922,2.0922,0,2.1275,2.1244,2.1239,2.1202,2.1193,2.1195,2.1163,2.116,2.1136,2.1128,2.1124,2.1086,2.1072,2.1038,2.1015,2.0998,2.0999,2.0987,2.1008,2.1003,2.1017,2.1016,2.1072,2.1076,2.1013,2.1013,2.1014,0,2.1305,2.1306,2.1269,2.1262,2.1247,2.1237,2.1226,2.119,2.1181,2.1152,2.1152,2.1135,2.1119,2.1097,2.1067,2.1049,2.1035,2.1056,2.1032,2.1041,2.1034,2.1034,2.1033,2.1061,2.1062,2.1063,2.1063,0,2.1361,2.1345,2.1332,2.1313,2.1301,2.1285,2.1266,2.1262,2.1221,2.1212,2.1197,2.1185,2.116,2.1143,2.112,2.1102,2.1075,2.1071,2.1073,2.1082,2.1093,2.1086,2.1021,2.107,2.1069,2.1068,2.1068,2.1068,2.1405,2.1404,2.1378,2.1364,2.1346,2.1329,2.1324,2.1299,2.1286,2.1264,2.1243,2.123,2.1203,2.117,2.1153,2.1142,2.1128,2.1131,2.1132,2.1133,2.1136,2.1096,2.1137,2.1137,2.1137,2.1137,2.1136,0,2.1458,2.1439,2.1427,2.1402,2.139,2.1367,2.1345,2.1337,2.1326,2.1304,2.1289,2.1271,2.1254,2.1222,2.1202,2.1199,2.1186,2.1195,2.1194,2.119,2.115,2.115,2.1205,2.1205,2.1205,2.1205,2.1205,2.1205,2.1484,2.148,2.1461,2.1448,2.1428,2.1415,2.1404,2.1388,2.137,2.1352,2.1338,2.1318,2.1292,2.1269,2.1252,2.1243,2.1237,2.1249,2.1237,2.12,2.1193,2.1187,2.1187,2.1249,2.1249,2.1277,2.1278,2.1278]}]]